Weather in Kolopino

Russia / Republic of Mordovia     54°21′31″N   44°09′04″E
temp.,
°C
wind,
m/s
gust,
m/s
humid.,
%
clouds,
%
prec.,
mm/h
press.,
hPa
HPBL,
m
6 august, fri
fri600:00+16ese346690 0.0 101763
03:00+15se3570100 0.0 101783
06:00+17sse386793 0.0 1017205
09:00+20s3562100 0.0 1017298
12:00+19sse3762100 0.0 1017217
15:00+21se376615 0.0 1016179
18:00+22sse366278 0.0 1015143
21:00+19se4106699 0.0 1015183
7 august, sat
sat700:00+18se4126856 0.0 1014242
03:00+18sse5146181 0.0 1014310
06:00+17sse4126592 0.0 1015270
09:00+20sse396196 0.0 1015329
12:00+27s453949 0.0 10151159
15:00+28sse4538100 0.0 10151444
18:00+25se36581 0.0 1015155
21:00+20se36605 0.0 101695
8 august, sun
sun800:00+19se376630 0.0 1016119
03:00+18se3758100 0.0 1017121
06:00+18se3962100 0.0 1017167
09:00+24sse4948100 0.0 1017362
12:00+28sse4637100 0.0 1017772
15:00+31sse4632100 0.0 10171534
18:00+26sse3853100 0.0 1017177
21:00+23sse31048100 0.0 1018164
9 august, mon
mon900:00+22sse31051100 0.0 1019184
03:00+21s3550100 0.0 101983
06:00+21s3457100 0.0 101978
09:00+26ssw3546100 0.0 1019341
12:00+30wsw333546 0.0 10201014
15:00+31w1132100 0.0 10191799
18:00+28nnw1148100 0.0 101911
21:00+23s2258100 0.0 101915
10 august, tue
tue1000:00+22n1163100 0.1 101911
03:00+22ese226098 0.2 101917
06:00+22ene2264100 0.0 101938
09:00+26e235190 0.0 1018334
12:00+30e333999 0.0 10171234
15:00+31e343557 0.0 10161871
18:00+28ene3652100 0.0 1016170
21:00+23ene3860100 0.0 1016131